Yankton, SD

9:39 AM CST on December 09, 2019 (GMT -0600)
Gurney Municipal

Weather History for KYKN - October, 2019

Change the Weather History Date:

Tuesday, October 8, 2019

  Actual Average Record
Temperature  
Mean Temperature 64 °F -  
Max Temperature 75 °F 67 °F 90 °F (1980)
Min Temperature 54 °F 39 °F 17 °F (2000)
Growing Degree Days 14 (Base 50)    
Moisture  
Dew Point 43 °F    
Average Humidity 48    
Maximum Humidity 69    
Minimum Humidity 33    
Precipitation  
Precipitation 0.00 in - - ()
Sea Level Pressure  
Sea Level Pressure 29.87 in    
Wind  
Wind Speed 16 mph (South)    
Max Wind Speed 24 mph    
Max Gust Speed 37 mph    
Visibility 10 miles    
Events      
Averages and records for this station are not official NWS values.
T = Trace of Precipitation, MM = Missing Value Source: NWS Daily Summary

Daily Weather History Graph

Daily Weather History Graph

Search for Another Location

Airport or City:

Astronomy

Oct. 08, 2019 Rise Set
Actual Time 7:34 AM CDT 6:58 PM CDT
Civil Twilight 7:06 AM CDT 7:27 PM CDT
Nautical Twilight 6:33 AM CDT 8:00 PM CDT
Astronomical Twilight 6:00 AM CDT 8:32 PM CDT
Moon 5:07 PM CDT (10/8) 2:15 AM CDT (10/8)
Length of Visible Light 12h 21m
Length of Day
11h 24m
Waxing Gibbous, 78% of the Moon is Illuminated
Oct 8
Waxing Gibbous
Oct 13
Full
Oct 21
Last Quarter
Oct 27
New
Nov 4
First Quarter

Hourly Weather History & Observations

Time (CDT) Temp. Dew Point Humidity Pressure Visibility Wind Dir Wind Speed Gust Speed Precip Events Conditions
12:56 AM 59.0 °F 39.0 °F 48% 29.99 in 10.0 mi South 15.0 mph 20.7 mph N/A   Clear
1:56 AM 59.0 °F 37.9 °F 46% 29.98 in 10.0 mi South 13.8 mph - N/A   Clear
2:56 AM 57.9 °F 37.9 °F 47% 29.98 in 10.0 mi South 12.7 mph - N/A   Clear
3:56 AM 57.9 °F 37.9 °F 47% 29.96 in 10.0 mi South 15.0 mph - N/A   Clear
4:56 AM 57.0 °F 39.0 °F 51% 29.96 in 10.0 mi South 16.1 mph - N/A   Clear
5:56 AM 55.9 °F 39.0 °F 53% 29.94 in 10.0 mi South 13.8 mph - N/A   Clear
6:56 AM 55.0 °F 39.0 °F 55% 29.93 in 10.0 mi South 15.0 mph - N/A   Clear
7:56 AM 54.0 °F 39.0 °F 57% 29.92 in 10.0 mi South 16.1 mph - N/A   Clear
8:56 AM 57.0 °F 39.9 °F 53% 29.90 in 10.0 mi South 20.7 mph - N/A   Clear
9:56 AM 61.0 °F 41.0 °F 48% 29.89 in 10.0 mi South 20.7 mph 32.2 mph N/A   Clear
10:56 AM 63.0 °F 42.1 °F 46% 29.88 in 10.0 mi South 20.7 mph 27.6 mph N/A   Clear
11:56 AM 66.9 °F 44.1 °F 44% 29.86 in 10.0 mi South 23.0 mph 28.8 mph N/A   Clear
12:56 PM 69.1 °F 44.1 °F 40% 29.84 in 10.0 mi South 24.2 mph 32.2 mph N/A   Clear
1:56 PM 73.0 °F 46.0 °F 38% 29.82 in 10.0 mi South 19.6 mph 29.9 mph N/A   Clear
2:56 PM 75.0 °F 46.0 °F 36% 29.79 in 10.0 mi South 19.6 mph 36.8 mph N/A   Clear
3:56 PM 75.9 °F 45.0 °F 33% 29.78 in 10.0 mi South 24.2 mph - N/A   Clear
4:56 PM 75.0 °F 46.0 °F 36% 29.78 in 10.0 mi South 17.3 mph 29.9 mph N/A   Clear
5:56 PM 73.0 °F 46.0 °F 38% 29.78 in 10.0 mi South 15.0 mph 25.3 mph N/A   Clear
6:56 PM 69.1 °F 46.0 °F 44% 29.81 in 10.0 mi SSE 12.7 mph - N/A   Clear
7:56 PM 64.9 °F 46.0 °F 50% 29.82 in 10.0 mi SSE 12.7 mph - N/A   Clear
8:56 PM 63.0 °F 46.9 °F 56% 29.83 in 10.0 mi SSE 15.0 mph - N/A   Clear
9:56 PM 61.0 °F 46.9 °F 60% 29.83 in 10.0 mi SSE 13.8 mph - N/A   Clear
10:56 PM 61.0 °F 46.9 °F 60% 29.82 in 10.0 mi SSE 19.6 mph - N/A   Clear
11:56 PM 57.0 °F 46.9 °F 69% 29.82 in 10.0 mi SE 9.2 mph - N/A   Clear